Regional Weather Roundup
Issued by NWS

Home | Current Version | Previous Version | Graphics & Text | Print | Product List | Glossary Off
Versions: 1 2 3 4 5 6 7 8 9 10 11 12 13 14 15 16 17 18 19 20 21 22 23 24 25 26 27 28 29 30 31 32 33 34 35 36 37 38 39 40 41 42 43 44 45 46 47 48 49 50

000
ASUS43 KFSD 272310
RWRSD

WEATHER ROUNDUP FOR SOUTH DAKOTA
NATIONAL WEATHER SERVICE SIOUX FALLS SD
600 PM CDT FRI MAY 27 2016

NOTE: "FAIR" INDICATES FEW OR NO CLOUDS BELOW 12,000 FEET WITH NO
SIGNIFICANT WEATHER AND/OR OBSTRUCTIONS TO VISIBILITY.


SDZ001>005-009-010-012>017-280000-
NORTHWEST AND NORTH CENTRAL SOUTH DAKOTA

CITY           SKY/WX    TMP DP  RH WIND       PRES   REMARKS
BUFFALO          N/A     65  47  52 E10       29.76S
FAITH            N/A     65  48  54 S6        29.82S
MOBRIDGE       CLOUDY    71  46  40 CALM      29.76F
$$

SDZ012>016-024>037-041>051-057-063-072>074-280000-
SOUTHWEST AND SOUTH CENTRAL SOUTH DAKOTA

CITY           SKY/WX    TMP DP  RH WIND       PRES   REMARKS
RAPID CTY ARPT PTSUNNY   63  50  62 S14       29.84S
PIERRE         CLOUDY    68  54  60 N5        29.77S
CUSTER         CLOUDY    50  43  77 SE6       29.90S
ELLSWORTH AFB  PTSUNNY   64  52  64 S9        29.83S
PHILIP         CLOUDY    68  49  50 NW6       29.81S
PINE RIDGE     CLOUDY    65  44  46 NE3       29.84F
WINNER         FAIR      70  54  56 N7        29.77F
$$

SDZ004>011-016>023-039-040-280000-
NORTHEAST SOUTH DAKOTA

CITY           SKY/WX    TMP DP  RH WIND       PRES   REMARKS
ABERDEEN       CLOUDY    65  59  81 SW6       29.78S
WATERTOWN      SUNNY     69  54  58 NW7       29.74F
BROOKINGS      SUNNY     71  55  56 N9        29.72
SISSETON         N/A     67  57  70 W12       29.73F
$$

SDZ017-020-022-023-036>040-048>070-280000-
SOUTHEAST SOUTH DAKOTA

CITY           SKY/WX    TMP DP  RH WIND       PRES   REMARKS
SIOUX FALLS    PTSUNNY   75  60  59 NE8       29.71F
HURON          MOSUNNY   71  61  70 N10       29.73F
CHAMBERLAIN    MOSUNNY   69  56  64 CALM      29.76S
MITCHELL       PTSUNNY   71  57  61 NE6       29.73F
YANKTON        SUNNY     73  59  60 N9        29.68F
$$

ABBREVIATIONS USED IN REMARKS
   TC - TEMPERATURE IN CELSIUS
  WCI - WIND CHILL INDEX
   HX - HEAT INDEX
  VSB - VISIBILITY




USA.gov is the U.S. government's official web portal to all federal, state and local government web resources and services.